Batman, Turkey

2:52 AM EEST on August 29, 2016 (GMT +0300)
Batman Air Base

Weather History for LTCJ - August, 2014

Change the Weather History Date:

Wednesday, August 13, 2014

  Actual Average (LTCC) Record (LTCC)
Temperature  
Mean Temperature 88 °F -  
Max Temperature 108 °F 100 °F 111 °F (2006)
Min Temperature 67 °F 69 °F 48 °F (1997)
Cooling Degree Days 22    
Growing Degree Days 38 (Base 50)    
Moisture  
Dew Point 44 °F    
Average Humidity 26    
Maximum Humidity 60    
Minimum Humidity 4    
Precipitation  
Precipitation 0.00 in - - ()
Sea Level Pressure  
Sea Level Pressure 29.66 in    
Wind  
Wind Speed 3 mph ()    
Max Wind Speed 9 mph    
Max Gust Speed -    
Visibility 10.5 miles    
Events      
Averages and records for this station are not official NWS values.
T = Trace of Precipitation, MM = Missing Value Source: Averaged Metar Reports

Daily Weather History Graph

Daily Weather History Graph

Search for Another Location

Airport or City:

Trip Planner

Search our weather history database for the weather conditions in past years. The results will help you decide how hot, cold, wet, or windy it might be!

Date:

Astronomy

Aug. 13, 2014 Rise Set
Actual Time 5:28 AM EEST 7:11 PM EEST
Civil Twilight 5:00 AM EEST 7:39 PM EEST
Nautical Twilight 4:26 AM EEST 8:13 PM EEST
Astronomical Twilight 3:50 AM EEST 8:49 PM EEST
Moon 8:47 PM EEST (8/13) 8:27 AM EEST (8/13)
Length of Visible Light 14h 39m
Length of Day
13h 42m
Waning Gibbous, 90% of the Moon is Illuminated
Aug 13
Waning Gibbous
Aug 17
Last Quarter
Aug 25
New
Sep 2
First Quarter
Sep 9
Full

Hourly Weather History & Observations

Time (EEST) Temp. Dew Point Humidity Pressure Visibility Wind Dir Wind Speed Gust Speed Precip Events Conditions
12:20 AM 75.2 °F 48.2 °F 38% 29.65 in - Variable 1.2 mph - N/A   Clear
12:50 AM 71.6 °F 51.8 °F 50% 29.65 in - NNE 3.5 mph - N/A   Clear
1:20 AM 69.8 °F 51.8 °F 53% 29.65 in - NNE 6.9 mph - N/A   Clear
1:50 AM 69.8 °F 53.6 °F 56% 29.65 in - NNE 9.2 mph - N/A   Clear
2:20 AM 69.8 °F 51.8 °F 53% 29.65 in - NE 6.9 mph - N/A   Clear
2:50 AM 69.8 °F 46.4 °F 43% 29.65 in - NE 5.8 mph - N/A   Clear
3:20 AM 68.0 °F 50.0 °F 52% 29.68 in - NE 3.5 mph - N/A   Clear
3:50 AM 68.0 °F 51.8 °F 56% 29.68 in - Variable 1.2 mph - N/A   Clear
4:20 AM 68.0 °F 51.8 °F 56% 29.68 in - NW 3.5 mph - N/A   Clear
4:50 AM 66.2 °F 51.8 °F 60% 29.68 in - NNE 2.3 mph - N/A   Clear
5:20 AM 66.2 °F 51.8 °F 60% 29.71 in - Calm Calm - N/A   Clear
5:50 AM 66.2 °F 51.8 °F 60% 29.71 in - Calm Calm - N/A   Clear
6:20 AM 68.0 °F 53.6 °F 60% 29.71 in - Variable 1.2 mph - N/A   Clear
6:50 AM 71.6 °F 51.8 °F 50% 29.71 in - Calm Calm - N/A   Clear
7:20 AM 77.0 °F 51.8 °F 41% 29.74 in - Calm Calm - N/A   Clear
7:50 AM 78.8 °F 48.2 °F 34% 29.74 in - Calm Calm - N/A   Clear
8:20 AM 82.4 °F 48.2 °F 30% 29.74 in - Calm Calm - N/A   Clear
8:50 AM 84.2 °F 46.4 °F 27% 29.74 in - Variable 2.3 mph - N/A   Clear
9:00 AM 85 °F 45 °F 15% 29.60 in 12 mi NW 3.5 mph - -  
9:20 AM 87.8 °F 50.0 °F 27% 29.74 in - SSW 6.9 mph - N/A   Clear
9:50 AM 91.4 °F 46.4 °F 21% 29.74 in - SW 6.9 mph - N/A   Clear
10:00 AM 91 °F 46 °F 12% 29.60 in 12 mi West 3.5 mph - -  
10:20 AM 93.2 °F 46.4 °F 20% 29.74 in - SW 5.8 mph - N/A   Clear
11:20 AM 98.6 °F 44.6 °F 16% 29.71 in - Variable 4.6 mph - N/A   Clear
11:50 AM 100.4 °F 41.0 °F 13% 29.71 in - West 5.8 mph - N/A   Clear
12:00 PM 100 °F 43 °F 7% 29.56 in 12 mi WNW 4.6 mph - -  
12:20 PM 102.2 °F 41.0 °F 12% 29.68 in - Variable 4.6 mph - N/A   Clear
12:50 PM 104.0 °F 37.4 °F 10% 29.68 in - Variable 3.5 mph - N/A   Clear
1:00 PM 102 °F 38 °F 5% 29.55 in 12 mi NW 3.5 mph - -  
1:20 PM 104.0 °F 37.4 °F 10% 29.68 in - Variable 3.5 mph - N/A   Clear
1:50 PM 105.8 °F 33.8 °F 8% 29.68 in - Variable 3.5 mph - N/A   Clear
2:00 PM 105 °F 29 °F 4% 29.53 in 12 mi NW 4.6 mph - -  
2:20 PM 105.8 °F 33.8 °F 8% 29.68 in - West 6.9 mph - N/A   Clear
2:50 PM 105.8 °F 33.8 °F 8% 29.65 in - West 6.9 mph - N/A   Clear
3:00 PM 106 °F 33 °F 4% 29.52 in 12 mi NW 5.8 mph - -  
3:20 PM 105.8 °F 33.8 °F 8% 29.65 in - West 6.9 mph - N/A   Clear
3:50 PM 107.6 °F 37.4 °F 9% 29.65 in 6.2 mi WSW 5.8 mph - N/A   Partly Cloudy
4:00 PM 105 °F 32 °F 4% 29.52 in 12 mi NW 5.8 mph - -  
4:20 PM 105.8 °F 33.8 °F 8% 29.65 in 6.2 mi Variable 3.5 mph - N/A   Partly Cloudy
4:50 PM 105.8 °F 37.4 °F 10% 29.65 in - SSW 4.6 mph - N/A   Clear
5:00 PM 105 °F 32 °F 4% 29.52 in 12 mi WNW 3.5 mph - -  
5:20 PM 105.8 °F 35.6 °F 9% 29.65 in 6.2 mi West 4.6 mph - N/A   Partly Cloudy
5:50 PM 104.0 °F 44.6 °F 13% 29.65 in 6.2 mi SSW 4.6 mph - N/A   Partly Cloudy
6:00 PM 104 °F 33 °F 4% 29.53 in 12 mi WNW 5.8 mph - -  
6:20 PM 100.4 °F 44.6 °F 15% 29.65 in - SSW 4.6 mph - N/A   Clear
6:50 PM 96.8 °F 50.0 °F 20% 29.65 in - Variable 2.3 mph - N/A   Clear
7:00 PM 100 °F 36 °F 5% 29.53 in 12 mi WNW 4.6 mph - -  
7:20 PM 95.0 °F 50.0 °F 22% 29.68 in - SE 3.5 mph - N/A   Clear
7:50 PM 91.4 °F 48.2 °F 23% 29.68 in - Variable 1.2 mph - N/A   Clear
8:00 PM 93 °F 33 °F 6% 29.55 in 12 mi Calm Calm - -  
8:20 PM 87.8 °F 46.4 °F 24% 29.68 in - NE 3.5 mph - N/A   Clear
8:50 PM 84.2 °F 44.6 °F 25% 29.68 in - Calm Calm - N/A   Clear
9:00 PM 84 °F 33 °F 8% 29.57 in 12 mi SE 3.5 mph - -  
9:20 PM 80.6 °F 48.2 °F 32% 29.71 in - NNE 5.8 mph - N/A   Clear
9:50 PM 80.6 °F 48.2 °F 32% 29.71 in - Variable 2.3 mph - N/A   Clear
10:20 PM 75.2 °F 48.2 °F 38% 29.71 in - NNE 4.6 mph - N/A   Clear
10:50 PM 73.4 °F 53.6 °F 50% 29.71 in - NNE 4.6 mph - N/A   Clear
11:20 PM 75.2 °F 50.0 °F 41% 29.74 in - Variable 2.3 mph - N/A   Clear
11:50 PM 77.0 °F 51.8 °F 41% 29.74 in - North 3.5 mph - N/A   Clear